Back to catalog

CZ-3B DEB

AliveGTO
NORAD 40843·DEBRIS·🇨🇳 China

Launched Dec 19, 2011 from Xichang Satellite Launch Center

Loading…

TLE

StaleSource: Space-Track

Epoch: Aug 30, 2026, 17:52 UTC

1 40843U 11077Y   26242.74501080 -.00000057  00000-0  35772-3 0  9996
2 40843  21.9702  97.2745 7168024 259.8867  19.4785  2.30289546 96175

Track CZ-3B DEB in real time with AllMySat

Download on the App Store